Theta_e
330 332 332 333 334 335 336 337 337 339 339 339 339 340 341 340 340 339 341 341 341 340 340 340 339 340 341 341 341 344 344 342 342 343 345 344 343 343 343 343 343 342 342 342 341 340 340 340 338 338 338 337 337 335 336 335 335 335 334 335 334 333 334 336 335 334 330 329 332 332 333 335 335 334 334 334 335 335 336 335 335 335 334 334 336
328 328 329 331 331 333 334 336 337 336 337 339 339 340 341 341 340 340 341 341 342 342 342 343 343 343 343 342 343 343 342 341 341 344 345 345 345 343 343 343 342 342 341 341 340 340 339 339 338 338 338 337 335 336 336 336 335 334 334 332 335 333 331 335 335 333 327 325 325 326 329 332 333 334 333 333 334 334 335 335 335 334 335 336 334
326 327 329 329 330 332 333 335 336 337 338 339 340 340 341 341 341 341 341 341 342 343 343 343 343 344 344 343 343 341 343 344 343 343 343 343 344 343 342 341 341 340 340 339 338 338 337 337 336 337 336 335 335 335 337 336 336 335 335 334 331 334 333 335 335 334 327 330 330 325 323 323 328 329 332 333 333 334 334 333 334 334 334 336 335
323 325 327 328 329 330 331 332 334 336 336 337 338 339 340 340 341 340 340 342 343 345 344 345 344 343 343 344 343 342 340 341 342 342 341 341 339 339 340 340 338 338 338 337 337 336 336 335 335 334 334 335 334 333 335 334 335 336 337 335 333 329 330 333 338 336 332 325 319 320 324 321 318 323 327 331 333 333 333 333 334 333 334 334 336
323 325 326 327 328 329 330 331 334 334 335 335 337 338 339 339 340 341 340 341 343 344 345 344 343 342 341 341 342 341 340 339 338 336 338 338 338 337 337 337 337 336 336 336 335 335 335 334 334 333 333 334 333 332 333 333 333 334 334 334 332 331 328 331 334 337 334 332 325 321 319 316 319 324 326 327 332 331 332 333 334 333 333 334 334
322 325 326 327 326 327 329 330 331 331 331 332 334 335 338 338 338 340 340 341 342 343 344 344 343 342 339 336 335 335 334 335 333 333 335 335 334 336 336 336 335 335 334 334 333 333 333 332 333 332 332 332 332 332 332 333 332 333 332 332 332 333 331 329 328 334 336 334 332 330 328 324 324 325 324 319 333 332 332 332 333 334 334 333 333
322 323 325 326 326 326 327 328 329 328 328 331 333 334 337 337 338 340 341 342 342 343 343 343 342 341 341 339 338 337 333 333 334 335 335 335 335 334 334 334 333 332 332 331 331 331 331 331 330 330 330 330 331 332 331 331 332 332 332 332 331 331 332 327 327 329 333 335 334 332 328 327 328 325 321 324 320 327 330 330 331 333 333 333 332
320 322 322 325 325 326 325 327 327 326 328 330 332 334 336 337 338 339 340 341 342 343 343 345 341 339 338 338 337 336 335 332 333 334 335 334 334 334 333 331 331 330 330 330 330 330 331 330 330 330 330 330 330 330 330 331 331 332 333 333 332 332 332 330 327 328 327 328 334 329 326 326 326 328 327 324 322 320 322 329 331 333 333 332 332
321 323 324 325 325 325 326 325 326 328 330 330 331 333 335 336 337 338 338 339 340 341 340 339 339 339 338 337 334 334 334 334 334 333 333 334 332 331 331 330 330 330 329 329 330 330 330 331 330 330 330 331 330 330 331 331 331 331 330 330 330 331 332 331 330 329 330 328 329 329 329 324 324 324 327 324 320 320 320 323 325 330 332 332 332
324 325 326 326 326 326 327 327 328 329 331 332 332 333 335 336 336 336 335 335 336 336 337 337 337 337 335 335 333 332 333 333 333 332 331 331 330 329 329 328 328 330 330 330 330 330 330 331 331 331 331 331 332 331 332 332 331 331 331 331 332 331 332 331 330 330 329 331 330 328 325 326 324 321 322 321 322 323 320 322 326 328 325 328 333
325 326 326 326 326 326 326 325 326 329 331 332 332 333 333 334 334 333 332 333 334 334 335 335 335 335 334 334 333 332 331 331 330 328 328 329 328 327 327 327 329 328 329 329 329 329 330 331 331 331 331 331 332 331 331 331 332 332 332 332 331 333 333 332 332 332 331 328 329 329 326 326 324 322 321 322 322 320 320 320 324 326 327 328 331
326 326 325 324 324 324 325 325 326 328 330 330 330 331 331 330 331 330 330 330 331 332 333 332 332 332 333 331 329 330 330 328 326 325 326 326 326 325 326 326 327 328 328 328 328 329 329 330 331 330 330 331 330 331 331 331 331 332 332 332 332 332 332 331 330 331 330 330 326 330 329 329 328 327 326 325 320 321 321 321 323 326 327 327 329
325 326 324 323 323 322 323 324 325 326 326 327 327 328 329 329 330 329 328 329 330 331 331 331 331 331 329 330 330 330 328 327 327 326 326 325 325 325 325 324 326 326 325 326 328 328 328 328 329 328 328 329 328 329 330 330 331 331 331 330 331 330 332 330 328 329 330 327 328 331 331 329 326 332 332 328 327 326 323 321 324 325 322 326 330
326 326 324 323 323 323 323 323 325 325 325 326 326 326 327 327 328 327 327 329 329 329 329 328 328 329 330 330 329 328 327 327 326 325 326 326 325 325 325 324 324 325 325 325 327 327 327 327 326 327 327 327 327 327 327 329 330 330 330 330 330 331 332 331 331 329 330 331 332 330 330 329 330 332 330 329 326 325 323 323 323 324 325 323 328
325 325 324 324 323 323 323 323 324 324 324 325 326 326 327 327 327 326 326 327 328 327 327 327 327 328 328 329 328 328 326 327 326 326 326 325 325 324 324 325 325 325 325 326 327 326 324 325 325 325 324 324 324 324 325 326 327 328 329 330 330 331 331 330 331 330 328 329 330 330 327 330 331 330 331 328 330 327 326 325 324 319 320 322 323
323 324 324 324 323 323 322 322 323 323 323 324 325 327 327 327 326 326 326 327 327 326 326 327 327 327 328 327 327 327 327 327 326 325 325 325 324 324 324 323 323 324 325 325 324 323 323 323 323 323 322 322 321 321 323 324 326 327 329 329 328 330 329 330 331 330 329 329 329 330 330 330 332 332 330 329 328 329 328 327 326 322 317 316 322
321 323 322 322 322 322 322 321 322 322 322 324 325 326 326 325 325 325 325 325 325 325 325 326 326 326 325 326 326 325 324 323 322 322 323 324 324 323 323 321 321 321 321 322 321 321 320 320 320 319 319 319 319 319 321 323 325 327 327 327 326 328 328 329 330 330 329 329 328 329 331 331 331 332 332 330 329 330 330 329 328 324 324 319 317
321 322 322 322 322 321 321 322 322 322 322 322 322 324 326 326 326 324 324 323 324 325 324 325 324 324 323 323 322 322 322 321 322 322 323 323 322 321 320 318 318 319 320 320 319 318 318 318 317 317 317 317 318 319 320 321 323 325 326 328 328 327 327 329 329 329 329 329 329 329 329 328 330 331 330 330 330 330 329 327 327 328 326 319 320
318 320 321 321 320 320 321 321 322 322 323 323 323 324 325 325 325 325 323 323 323 323 323 323 323 322 321 320 319 319 320 320 321 322 323 321 318 318 317 317 317 318 317 317 316 316 315 315 315 315 315 316 317 318 319 321 323 325 326 326 327 327 326 325 327 327 327 327 326 326 327 328 330 329 330 330 331 330 329 329 327 328 327 326 323
318 319 320 320 320 320 320 321 321 321 322 323 323 324 323 323 322 322 322 322 322 322 322 321 321 320 320 319 319 319 319 320 320 320 319 317 315 316 315 315 315 316 315 315 315 313 313 313 314 314 314 315 316 317 318 320 323 325 326 325 326 324 324 323 324 325 325 325 324 323 323 323 325 327 328 329 331 331 329 327 328 328 328 328 325
317 317 318 318 318 318 319 321 321 322 322 322 322 322 321 321 321 321 321 320 320 320 320 319 319 319 319 318 317 318 318 318 318 317 316 315 314 314 314 315 315 314 315 314 313 313 313 313 313 314 314 314 315 316 318 320 321 321 322 323 322 321 319 320 320 320 321 322 321 320 319 319 322 323 325 326 327 328 328 327 328 327 326 328 326
316 317 317 317 317 318 319 319 320 320 320 321 321 320 320 320 320 320 320 319 319 318 318 318 317 317 317 317 317 318 317 316 316 314 313 312 312 312 313 313 312 312 313 312 312 312 312 313 313 312 312 313 315 316 316 317 316 316 316 317 317 316 316 317 317 317 318 319 319 318 317 318 319 320 321 323 324 325 326 325 326 326 325 325 327
316 317 317 317 317 318 319 319 319 319 319 320 320 319 319 319 319 319 318 317 318 317 317 317 317 316 316 316 315 314 314 313 312 311 311 311 311 311 311 311 311 311 312 312 311 311 312 312 313 311 313 313 313 315 315 314 314 313 313 313 314 314 314 314 314 314 315 317 316 317 316 316 316 316 317 320 323 324 326 326 326 327 325 326 326
317 318 317 317 316 318 318 318 317 317 317 318 318 318 318 318 318 318 317 317 317 317 316 316 315 315 314 313 313 312 311 311 310 309 310 310 310 310 311 311 311 311 310 311 311 311 311 312 314 312 313 312 313 315 315 314 313 312 312 312 312 312 312 312 312 313 313 314 314 314 314 315 314 314 314 316 319 321 324 325 326 327 325 325 325
315 316 315 315 315 315 316 317 317 317 317 316 316 316 316 317 317 316 316 316 316 315 314 314 313 312 312 311 310 310 310 309 309 308 308 309 309 309 310 310 311 310 310 310 311 311 312 312 311 312 311 310 311 313 313 312 312 313 312 312 312 312 313 313 312 312 314 313 313 312 313 313 312 311 311 311 313 317 321 322 322 324 325 325 325
313 314 314 314 314 316 316 316 316 316 315 314 315 315 315 316 316 316 315 315 315 314 313 313 312 311 309 309 309 309 308 307 307 307 307 307 308 308 309 310 310 309 310 310 310 310 310 310 310 310 310 309 308 309 311 311 311 312 313 313 312 313 313 313 312 311 312 312 312 312 312 313 311 309 308 308 309 312 315 315 317 319 322 325 325
313 313 312 313 314 314 315 315 316 316 316 315 315 315 315 315 315 315 315 314 313 313 312 311 310 310 308 308 307 307 306 306 306 306 306 306 306 308 308 308 309 308 308 308 309 309 309 309 308 308 308 308 308 307 309 311 312 312 312 311 311 312 312 313 312 311 312 312 311 312 312 312 312 310 308 307 307 308 309 309 310 313 317 322 323
311 310 311 312 313 314 313 313 313 313 313 314 315 315 315 315 314 314 314 314 313 311 310 310 308 307 307 306 306 306 306 306 306 306 306 306 306 307 307 307 307 306 306 307 307 308 308 308 308 307 307 307 307 306 307 310 310 309 309 309 309 309 310 310 310 310 312 312 311 311 311 311 312 311 309 308 307 306 306 306 307 309 312 316 319
311 311 312 312 312 312 311 311 311 311 312 312 313 313 313 313 313 313 312 311 311 310 308 308 307 306 305 305 305 305 306 306 306 305 305 305 305 305 305 306 305 305 306 307 308 308 307 308 307 306 306 306 305 304 303 304 307 308 308 308 307 307 308 308 308 309 310 310 311 311 311 310 311 312 307 306 307 307 305 303 304 305 307 309 312
310 311 311 311 311 311 311 311 311 310 310 311 312 312 311 311 312 312 311 310 310 309 308 307 306 305 304 304 304 305 305 306 306 305 305 305 305 305 305 305 305 306 306 307 306 306 305 305 305 305 305 304 303 303 299 297 298 306 308 307 307 306 306 307 307 307 308 308 309 309 310 309 307 307 306 302 301 301 304 305 304 303 303 304 307
309 310 310 311 311 311 310 310 310 310 310 311 312 312 312 312 312 311 310 310 309 308 307 306 304 304 303 303 304 305 306 305 305 305 305 304 304 305 306 305 305 305 305 305 305 304 305 305 304 304 304 303 302 300 295 294 294 296 305 307 306 305 305 305 305 305 305 306 307 308 308 309 308 308 309 302 300 299 299 299 299 300 302 301 302
310 310 310 310 309 309 310 310 311 311 312 312 311 311 311 310 310 309 309 309 308 307 305 304 303 303 302 302 303 305 307 305 306 304 305 305 305 305 305 305 305 304 304 305 304 304 304 304 304 304 304 303 302 296 293 294 294 294 299 306 306 305 305 304 304 304 304 304 305 306 306 307 306 307 308 310 308 301 299 299 299 298 297 296 296
311 310 309 310 310 310 311 311 311 311 311 313 313 311 309 309 309 309 309 308 306 305 304 303 303 302 302 303 303 303 303 304 305 304 305 306 307 304 303 303 302 303 304 303 303 303 303 304 304 303 302 302 302 294 293 294 294 294 295 302 304 305 304 303 304 303 303 303 304 304 305 305 305 306 306 307 309 310 304 301 302 302 301 298 295
310 310 310 310 311 311 311 311 312 312 312 312 313 311 310 310 309 308 307 307 306 306 305 304 303 303 303 303 303 302 302 302 302 302 303 303 302 301 302 302 303 303 303 302 303 303 303 303 303 303 302 302 301 295 293 294 294 294 294 299 305 304 304 303 303 303 303 303 303 303 303 303 304 304 303 304 308 309 309 309 308 307 306 304 300
310 310 310 311 311 310 310 310 311 311 311 311 311 311 310 309 309 307 306 305 305 305 304 303 302 302 302 302 302 302 301 301 302 302 302 301 301 301 301 301 302 302 301 301 302 302 302 303 303 303 303 301 299 292 293 293 293 294 295 299 305 304 303 303 303 303 303 303 303 303 303 302 302 302 300 299 306 308 308 308 307 306 305 305 305
311 311 311 311 310 309 310 310 310 310 311 311 310 311 309 307 308 306 304 303 302 301 301 300 300 301 301 302 302 301 301 301 301 301 301 300 301 301 300 301 301 301 301 302 302 302 302 302 303 303 303 301 299 292 292 293 293 293 296 304 304 303 303 302 302 303 302 302 302 302 302 302 301 300 295 292 297 306 307 306 305 306 305 305 304
312 312 311 312 311 311 311 310 310 309 309 310 310 309 307 306 305 304 302 301 300 299 299 299 300 301 301 301 301 301 301 301 301 300 300 300 300 300 300 302 301 301 300 300 301 301 302 302 302 303 303 301 300 294 291 292 293 293 299 304 304 303 303 302 302 302 302 301 300 300 301 301 300 299 293 291 292 300 306 305 304 304 304 304 304
312 311 311 311 311 310 309 310 309 308 308 308 309 308 306 305 304 303 300 299 299 298 299 300 300 301 301 301 301 301 300 300 300 299 299 299 300 300 300 301 301 300 300 300 301 301 301 301 301 301 302 301 300 295 291 292 292 292 298 303 303 302 302 302 301 302 302 302 300 297 298 299 299 297 291 291 292 301 304 304 303 303 302 302 302
311 311 310 310 309 309 308 308 306 305 306 308 307 307 305 303 302 301 299 298 297 298 298 298 299 300 300 301 301 300 300 299 299 299 299 299 299 299 300 301 301 301 300 301 301 300 300 301 301 301 299 300 300 297 292 291 292 292 299 304 302 301 301 301 301 300 301 301 301 299 295 294 295 293 290 291 291 299 303 302 302 302 301 301 302
311 311 311 310 309 307 306 306 305 304 306 306 306 306 305 302 300 299 297 297 297 298 299 299 300 300 301 301 301 300 299 299 298 299 299 299 300 300 300 300 301 301 300 300 300 300 300 299 300 300 300 301 300 298 294 291 291 292 293 302 302 300 299 299 300 299 299 300 300 300 297 291 290 290 290 290 291 292 301 301 301 300 300 299 304
310 308 305 307 307 306 305 305 304 304 305 306 306 304 302 300 298 297 296 296 297 299 300 300 300 300 300 300 300 300 299 299 299 299 299 299 300 300 300 300 300 300 300 300 300 300 299 299 299 300 300 299 299 299 295 290 291 291 291 295 301 300 300 299 299 298 299 299 299 299 298 292 290 290 290 290 291 291 293 300 299 299 299 298 300
308 306 305 305 305 304 303 303 303 304 304 304 304 301 299 297 296 295 295 297 298 299 300 300 300 299 299 299 299 299 299 299 299 299 298 298 299 300 300 300 300 300 299 299 299 299 299 299 299 299 300 299 298 296 298 292 290 291 290 291 298 298 299 300 298 298 298 299 299 298 297 292 289 290 290 290 290 291 291 298 296 291 291 291 302
305 305 305 305 303 301 301 301 303 303 303 303 302 298 297 296 295 295 297 297 298 299 300 300 299 299 299 299 299 299 298 298 299 299 299 298 299 299 300 300 300 299 298 298 298 299 298 297 298 298 299 299 299 297 292 295 290 290 290 290 290 294 292 300 299 298 298 298 298 298 296 291 289 290 290 290 290 290 293 293 289 290 292 292 297
306 305 304 303 301 301 300 301 302 303 303 302 300 298 297 296 295 296 297 298 298 299 299 299 298 298 298 298 298 298 298 298 299 299 298 298 298 299 299 299 299 298 297 296 296 297 297 296 296 295 297 297 298 297 294 291 293 289 290 289 289 289 291 298 299 298 297 296 296 296 293 289 290 290 290 290 290 290 292 289 290 290 292 295 301
304 304 303 302 300 299 299 300 301 302 302 302 301 298 296 295 296 297 297 297 298 298 298 298 297 297 297 297 297 297 298 298 299 299 298 298 298 299 298 299 299 298 296 296 296 296 296 296 295 295 295 296 297 297 297 294 291 291 290 289 289 289 289 291 297 296 296 295 291 289 289 290 290 290 291 292 292 291 289 290 290 291 296 300 300
305 303 301 300 300 300 300 299 300 301 300 301 300 299 296 295 295 296 296 297 296 296 296 296 297 297 296 296 296 296 297 297 298 298 299 299 299 298 297 298 297 297 296 296 295 295 295 295 295 295 295 295 296 296 296 297 295 295 293 291 291 290 292 292 293 294 290 290 290 290 290 291 292 293 297 297 296 295 291 291 292 294 299 298 298
302 301 300 299 299 299 299 298 298 299 299 299 298 297 295 295 294 295 296 297 297 296 296 296 296 296 296 296 296 296 296 296 297 298 298 299 299 299 298 297 297 296 296 296 296 295 295 294 294 295 295 295 295 295 295 296 297 297 297 297 297 297 294 294 296 298 295 297 295 294 294 292 292 291 292 292 293 293 296 297 297 298 298 297 298
302 300 300 299 299 299 299 298 297 298 298 298 297 295 295 296 295 296 296 296 296 295 295 295 295 296 296 296 295 290 294 296 297 298 297 298 298 299 298 297 296 297 296 296 296 295 294 295 295 295 295 295 294 294 295 295 296 296 297 297 297 297 297 297 296 297 298 297 298 293 294 298 297 298 297 297 298 297 296 295 296 297 297 297 296
300 299 299 298 298 299 299 298 297 297 298 297 296 295 295 296 296 296 296 296 295 294 295 295 296 295 295 295 295 296 296 296 296 296 297 298 298 298 297 297 298 299 299 298 297 296 296 297 297 296 295 294 294 294 294 290 292 289 292 296 296 296 297 296 292 289 297 298 297 296 296 296 296 293 294 295 296 296 295 296 296 296 297 297 297
300 300 299 298 298 297 297 296 296 297 298 297 296 296 296 296 297 297 297 295 294 295 295 295 295 295 295 295 295 295 296 296 296 296 295 294 288 289 293 298 297 291 287 287 290 297 298 298 297 296 297 296 294 294 289 288 289 288 288 288 288 288 288 291 290 289 294 294 293 293 294 293 294 293 293 293 294 294 294 294 295 292 293 294 295
299 298 298 297 297 296 296 296 296 297 297 296 296 296 296 296 297 297 297 296 295 294 294 294 294 295 294 295 295 295 296 297 297 297 297 295 295 294 288 287 289 289 289 288 288 288 287 288 296 296 293 288 288 288 288 289 289 288 288 288 288 288 288 288 288 292 293 292 292 292 292 293 293 293 292 293 293 293 293 293 294 294 295 294 292
Wind_Speed
7 9 9 9 8 8 8 8 8 8 8 9 9 8 8 9 8 8 8 8 7 7 6 5 4 4 2 1 1 1 0 1 2 1 1 2 2 2 3 3 3 3 3 3 3 3 4 4 4 4 4 5 5 6 7 8 8 8 8 8 10 11 9 7 8 7 8 8 7 9 10 10 9 9 10 9 10 9 9 9 9 9 10 10 8
8 9 9 9 7 8 7 7 7 9 8 9 8 8 8 9 8 8 7 7 7 7 6 5 4 3 3 3 1 1 1 2 2 2 3 3 3 2 2 2 2 2 2 2 3 3 4 4 4 4 4 4 5 6 7 7 8 7 7 7 6 7 8 6 6 4 6 7 8 8 8 7 9 9 9 10 10 10 9 9 9 10 10 10 8
6 6 9 8 9 8 6 6 6 7 9 8 7 7 8 7 7 7 6 7 6 6 6 5 3 2 2 2 2 3 2 2 3 3 3 3 3 3 2 3 3 3 3 3 3 3 3 4 4 4 5 4 5 6 6 7 7 8 8 7 7 5 7 6 7 7 8 6 8 8 9 8 6 7 9 11 10 10 9 11 10 10 12 10 9
6 7 9 8 8 7 6 6 6 6 7 7 6 7 6 6 6 6 6 6 6 6 5 4 4 4 3 3 2 3 3 3 3 3 3 3 4 4 4 4 4 4 4 3 2 3 3 4 4 4 5 5 5 6 6 8 8 8 7 7 7 9 7 6 7 8 8 8 6 6 3 4 10 8 7 7 10 11 11 11 10 11 11 11 9
1 7 9 8 8 7 7 6 6 7 6 6 5 5 3 5 5 6 5 5 5 5 5 5 5 5 4 4 4 4 3 4 4 3 3 3 4 5 5 5 5 5 4 4 3 3 3 3 4 4 5 5 5 6 7 8 9 9 10 9 8 7 10 9 9 7 9 9 9 5 4 4 9 8 6 7 6 8 11 12 11 12 11 10 9
7 4 7 8 8 7 7 7 6 6 6 4 5 5 5 4 5 4 4 4 5 5 5 5 4 4 5 5 5 5 5 3 3 4 3 3 4 4 5 5 6 5 5 5 5 5 5 5 5 5 5 5 5 6 6 7 8 9 9 9 11 10 9 8 10 7 8 9 11 10 5 8 6 1 2 5 4 6 7 9 12 13 12 11 11
8 6 3 6 7 7 7 7 6 6 5 5 6 6 6 6 6 6 5 6 6 6 5 5 4 4 5 4 3 4 5 4 4 3 2 2 3 4 4 5 6 6 6 6 6 5 5 5 5 5 5 5 5 6 7 8 9 9 9 9 10 9 9 10 11 10 8 8 9 9 11 11 10 8 9 6 11 6 7 8 10 12 13 13 13
11 10 2 2 5 7 7 6 6 6 5 6 5 5 7 8 8 7 7 5 4 4 4 3 6 6 6 5 4 4 5 6 5 3 2 3 4 4 4 5 6 6 6 7 7 7 6 6 6 5 6 5 6 6 6 7 8 8 9 11 10 9 9 9 11 10 8 7 3 6 4 7 14 11 10 10 9 10 9 7 8 10 11 12 13
13 11 9 5 6 7 7 7 7 7 7 7 6 6 7 9 9 8 7 5 5 5 5 4 4 5 5 5 5 4 4 4 3 2 3 3 4 4 5 5 6 7 7 8 8 8 7 6 6 7 7 7 6 6 6 7 8 8 8 8 10 9 8 9 10 10 8 10 8 7 5 6 11 13 9 8 8 9 11 11 10 8 9 11 12
12 14 11 8 7 7 7 8 7 7 8 9 9 8 7 7 8 8 7 5 5 6 6 7 6 5 6 5 6 4 3 3 3 4 3 3 5 6 6 7 7 7 7 8 9 9 8 7 8 9 8 7 7 7 8 8 9 9 9 10 10 10 7 9 9 9 9 8 8 8 8 6 4 5 5 10 10 12 13 11 8 8 10 10 10
11 12 12 10 8 8 8 9 8 8 8 9 10 8 7 7 8 9 7 6 6 6 7 7 6 5 5 5 5 5 5 4 4 4 4 5 6 8 8 7 7 8 9 8 8 9 9 9 9 9 8 8 8 9 9 9 10 10 10 12 11 9 7 9 9 9 8 9 9 7 7 8 7 5 5 6 7 8 8 11 11 11 11 10 11
12 12 12 12 11 9 9 10 9 9 9 9 8 7 8 7 8 10 7 6 6 6 7 6 6 5 5 6 6 5 5 5 6 6 7 7 8 8 8 8 8 7 8 8 9 10 9 9 9 9 9 9 9 9 9 10 9 9 9 9 8 10 9 9 9 9 9 6 9 6 7 7 7 7 5 6 7 9 9 10 11 10 11 11 7
12 12 11 12 11 10 10 10 10 10 7 8 8 7 7 8 8 10 8 6 6 6 7 6 5 5 6 5 6 6 7 7 7 8 8 8 8 8 8 7 7 7 9 9 8 10 9 9 10 9 8 8 9 9 9 10 10 10 9 10 9 10 8 10 9 10 8 8 7 6 6 7 8 6 6 7 7 8 10 11 9 9 11 9 7
12 13 11 11 11 10 11 10 9 10 8 8 9 7 6 7 8 9 8 6 6 6 7 7 6 6 5 6 6 7 8 8 8 8 8 7 7 8 7 7 7 8 9 8 8 8 7 7 7 7 8 8 9 9 9 9 9 9 11 10 10 9 9 10 9 10 8 8 7 8 8 8 8 7 7 6 8 8 8 10 9 8 8 10 4
13 13 12 12 11 12 11 10 10 9 8 8 8 8 8 8 8 10 9 7 6 7 6 7 6 6 7 8 8 8 8 8 8 7 7 7 7 7 7 7 7 7 7 6 8 8 8 8 9 9 9 9 9 8 8 8 8 7 8 10 9 9 10 10 8 9 9 10 9 7 8 7 7 8 7 8 8 9 10 9 8 10 8 8 9
12 13 14 13 12 12 11 10 10 10 9 6 8 7 7 7 8 8 8 7 7 7 6 6 7 7 9 9 9 9 7 7 7 7 7 7 7 6 7 6 6 6 6 7 7 8 8 9 9 10 10 9 8 8 9 8 9 8 7 9 10 8 9 10 8 8 9 10 10 10 8 8 7 7 6 8 9 9 9 8 9 9 10 9 7
11 12 13 14 12 11 11 11 10 10 7 7 7 7 8 9 9 9 8 8 7 7 7 7 8 9 10 9 9 10 9 9 8 8 7 6 6 7 7 6 6 6 6 7 8 8 8 9 9 9 9 9 9 9 9 9 9 8 8 9 9 9 8 9 9 8 9 9 9 10 8 8 7 8 6 6 7 8 9 9 9 11 9 10 8
6 9 12 13 12 12 12 12 11 10 10 9 9 7 7 7 8 9 9 9 7 7 8 8 9 9 9 10 10 9 8 9 7 7 5 6 7 7 6 7 8 7 7 7 8 9 9 10 9 10 9 9 9 8 9 9 8 7 8 8 9 8 9 9 10 11 10 10 9 8 8 8 9 8 7 8 7 7 7 8 9 9 9 11 9
14 11 11 12 11 12 12 13 10 10 9 10 9 8 7 7 7 8 9 8 8 7 8 8 7 6 7 7 7 7 8 7 6 6 6 7 7 7 7 7 8 9 9 9 9 9 9 10 9 10 9 9 9 9 9 9 9 7 8 8 10 10 9 9 9 10 9 10 11 10 11 9 9 10 9 7 6 7 7 7 8 8 8 10 10
14 13 12 12 12 13 14 12 11 11 10 9 9 8 10 9 9 9 9 9 9 10 8 9 8 8 8 7 7 7 7 7 7 7 7 8 7 7 8 8 9 8 9 9 9 9 10 10 10 9 9 9 10 10 10 10 10 9 10 10 10 11 10 10 9 9 8 10 11 11 11 10 9 9 9 9 8 7 6 7 7 7 8 8 10
13 13 13 14 14 12 9 9 10 9 9 9 8 10 9 9 9 8 9 9 10 9 9 8 8 8 9 9 8 8 8 7 8 8 8 8 7 8 8 7 7 8 8 9 9 9 10 9 10 9 10 10 11 11 11 11 10 11 10 11 12 12 12 11 10 12 12 11 12 12 12 12 11 10 9 9 9 10 9 8 6 6 7 7 8
13 13 15 14 13 11 9 10 11 10 9 10 10 10 10 9 8 8 8 8 9 8 8 8 7 7 9 9 9 8 8 8 8 9 9 8 8 9 8 8 8 8 8 8 9 9 9 10 9 9 10 11 11 11 11 9 11 11 11 9 11 12 12 12 11 12 12 11 11 12 13 13 12 11 10 10 10 8 7 9 8 7 7 8 7
15 15 15 14 12 11 10 12 11 11 11 11 10 10 10 9 8 8 10 10 9 8 8 7 7 7 8 8 8 9 9 9 9 8 9 8 8 9 8 8 8 7 8 8 9 9 9 9 10 9 11 11 11 11 11 10 10 11 11 12 11 11 11 11 12 12 12 12 13 13 14 13 11 13 12 11 9 9 8 7 9 8 8 7 6
17 16 13 10 10 13 14 13 12 11 11 10 8 7 7 7 9 10 11 10 9 8 8 9 9 9 9 9 9 9 9 9 8 8 9 9 8 8 8 8 8 7 8 8 9 10 10 11 12 11 12 12 12 12 12 12 13 13 12 12 12 12 13 13 13 13 13 12 13 13 14 14 14 14 13 12 11 10 9 9 9 9 8 8 7
16 15 15 14 12 15 14 14 13 12 11 10 9 7 7 8 9 10 10 9 9 8 8 8 8 9 8 9 9 9 8 9 9 8 9 8 8 7 7 8 8 9 9 8 9 10 11 12 11 12 12 12 12 12 12 13 12 11 11 11 12 13 14 14 13 13 14 12 13 13 14 14 15 14 14 14 13 15 10 9 8 9 10 8 7
17 17 16 14 13 12 12 13 12 12 11 9 7 8 9 10 11 10 10 9 9 8 8 7 7 8 8 9 8 8 9 9 8 8 8 7 7 7 7 7 8 9 9 9 10 10 10 12 12 12 12 12 12 12 12 12 12 11 11 11 11 12 13 13 13 13 14 14 13 14 14 15 16 16 14 14 15 16 14 13 13 11 9 9 8
18 17 13 11 12 12 12 11 11 12 10 8 8 10 10 11 11 10 9 9 8 8 8 8 8 8 8 9 8 8 8 8 8 7 7 7 7 7 8 8 8 9 9 10 10 11 10 11 12 12 12 12 13 12 11 12 12 11 11 11 10 11 12 10 12 14 15 13 12 12 13 15 16 15 16 17 15 15 14 15 13 12 10 9 8
11 11 12 15 15 14 12 12 12 11 10 8 8 9 10 10 10 9 8 8 7 7 8 8 8 8 8 8 7 7 7 7 7 7 7 7 7 8 8 8 8 9 10 11 11 11 11 11 12 12 12 12 13 13 12 11 9 9 9 10 10 10 11 11 11 12 14 13 12 13 13 14 14 13 12 14 16 14 13 14 15 14 13 11 8
15 15 16 17 16 13 12 12 11 11 12 11 10 11 11 10 9 8 8 8 7 7 8 8 8 8 7 7 7 6 6 7 7 7 7 8 8 8 9 9 9 9 9 10 11 11 11 12 12 10 12 12 12 12 10 10 8 9 8 9 10 11 11 11 11 12 13 13 13 11 13 14 16 17 18 15 15 16 14 16 17 16 15 14 11
19 18 16 14 16 15 14 14 12 12 12 11 12 11 10 10 9 8 8 7 7 8 8 8 7 7 7 7 7 7 7 7 8 8 8 8 8 8 9 10 10 10 11 11 10 9 9 10 11 12 11 11 11 10 12 16 14 8 8 8 9 10 11 11 11 11 12 13 13 12 13 20 16 14 15 15 17 17 18 17 14 16 15 15 13
18 16 13 15 16 15 13 13 14 13 13 12 12 12 10 10 9 9 8 7 8 8 8 7 7 7 6 7 7 7 7 8 8 8 8 9 9 8 9 10 10 11 11 9 9 10 10 10 11 11 12 11 10 9 14 14 15 16 9 9 10 11 11 12 12 12 12 12 13 13 12 15 18 17 14 12 13 15 14 16 21 22 20 17 15
12 12 13 16 16 16 16 16 15 14 14 14 13 12 12 11 10 9 8 8 8 8 8 8 7 7 6 6 6 8 8 9 9 9 9 9 9 10 10 11 11 11 9 8 10 10 10 10 10 11 12 11 11 13 14 14 14 15 12 10 10 10 11 12 12 12 12 12 13 13 12 11 13 17 13 12 13 12 12 13 16 19 21 22 21
14 15 14 13 12 14 16 16 15 12 11 14 14 12 12 12 11 9 8 8 8 8 8 8 7 7 7 6 6 7 8 9 9 9 9 9 10 10 10 10 9 8 8 10 10 10 11 10 11 12 12 11 11 15 14 15 14 14 13 11 11 11 12 12 12 13 13 13 12 12 12 12 11 20 16 13 12 12 13 14 14 16 19 21 20
11 14 17 15 14 13 14 15 14 12 13 14 13 13 12 10 11 10 9 9 9 9 8 8 8 7 7 7 7 8 9 8 7 7 8 8 9 10 9 7 7 8 9 10 11 12 11 11 10 11 11 11 11 13 15 14 14 13 12 11 11 12 12 13 13 13 13 13 13 12 12 12 13 15 15 15 13 12 12 12 14 15 15 18 18
18 16 16 16 16 16 15 15 15 15 14 14 13 13 12 10 10 10 10 10 9 9 8 7 7 7 7 7 8 8 9 8 8 8 9 10 9 8 8 7 7 8 9 9 10 11 9 10 10 10 10 10 10 15 15 15 13 12 11 12 11 11 11 12 13 14 14 14 14 12 13 13 14 15 14 16 13 12 12 13 15 15 15 15 15
17 19 18 18 17 18 17 16 15 15 14 14 14 12 11 10 9 9 9 10 9 8 7 7 7 7 7 7 8 9 9 8 8 8 10 10 9 8 8 7 8 8 8 8 9 9 10 10 9 10 10 11 11 16 15 15 15 13 10 10 10 11 12 12 12 13 14 14 13 13 12 13 14 15 17 20 16 11 12 15 15 15 15 15 14
16 15 17 14 12 15 16 16 14 12 13 13 13 12 12 11 10 9 9 10 10 8 6 7 7 7 7 7 8 9 9 9 9 9 10 9 9 8 7 6 9 8 9 9 9 8 8 9 10 10 10 10 11 15 16 16 15 15 9 10 10 10 11 12 12 12 12 14 14 15 13 12 13 14 18 20 20 13 13 15 15 15 14 14 14
13 11 12 13 12 13 14 15 14 12 12 12 12 12 12 11 11 10 9 9 9 9 7 7 7 7 7 7 7 8 9 9 9 10 10 9 8 7 7 5 8 9 9 8 7 8 8 9 10 11 9 9 10 14 16 15 15 15 10 9 10 10 11 11 11 12 11 11 15 22 18 14 14 14 18 20 21 15 14 14 15 15 16 16 14
15 17 17 15 15 16 14 13 13 12 11 12 13 13 11 10 10 10 9 9 9 9 8 8 7 7 7 7 7 8 8 9 10 9 8 9 8 7 6 6 7 8 8 7 7 8 8 9 9 10 11 10 10 12 16 15 15 16 10 8 9 10 11 10 10 11 11 10 11 14 20 17 15 15 19 19 21 17 15 14 14 14 15 17 14
15 12 12 16 18 15 12 13 13 12 12 13 12 11 12 11 10 8 9 8 8 8 8 8 8 8 7 7 7 8 9 9 10 9 8 8 7 7 7 7 7 8 8 8 8 8 10 9 8 9 9 9 10 11 13 15 15 15 14 8 8 10 10 10 10 10 10 11 11 11 14 18 17 18 18 19 19 19 14 14 13 13 12 13 11
17 15 14 16 12 12 14 14 12 13 12 11 11 12 11 10 9 9 9 8 8 8 9 9 8 8 8 8 7 8 9 8 8 8 8 7 7 7 7 8 8 8 8 8 9 9 9 9 9 9 9 10 9 9 12 14 15 15 15 11 9 9 9 10 9 10 10 10 10 10 10 15 16 17 18 18 18 18 16 12 12 11 10 9 9
14 17 15 13 11 12 13 11 10 13 12 10 11 11 10 9 8 9 9 8 9 9 9 9 9 9 9 8 8 8 8 7 7 8 9 8 7 6 6 7 8 8 9 9 9 9 10 10 9 9 9 9 10 12 9 13 14 14 15 15 9 9 8 8 10 10 10 9 9 9 10 12 15 15 16 17 17 16 16 12 12 13 14 15 11
17 11 10 15 13 12 12 13 11 11 11 10 13 13 9 8 9 10 9 9 9 9 10 10 10 10 9 9 8 9 7 6 7 8 10 9 7 7 7 7 8 9 10 11 10 9 10 10 10 8 8 8 8 9 12 11 13 13 14 14 13 10 10 8 9 9 9 9 8 9 10 14 14 14 14 15 17 16 14 12 15 15 14 15 11
15 16 15 11 13 12 12 11 11 10 10 11 13 13 10 9 10 8 9 9 9 9 10 10 9 9 9 8 8 8 7 7 8 8 9 9 7 7 7 6 7 8 9 10 9 9 9 10 10 9 8 8 8 8 10 11 11 13 13 12 12 12 11 8 9 8 8 8 9 9 9 14 14 14 13 12 15 15 11 14 15 15 13 13 12
18 15 14 13 15 15 13 12 10 11 10 9 10 13 12 11 9 9 10 10 10 10 10 9 9 9 8 8 8 7 7 7 7 8 9 8 8 7 8 6 7 8 9 9 8 8 9 9 8 8 8 8 8 8 8 8 10 11 12 12 13 13 13 12 10 9 9 8 9 11 12 13 14 13 12 12 12 14 15 14 15 14 13 11 11
16 14 13 12 14 15 16 15 11 10 9 9 9 12 13 10 9 9 9 10 9 9 9 9 9 8 9 9 9 8 7 7 7 6 6 6 7 7 8 7 7 8 8 8 8 8 8 8 8 7 7 7 7 7 8 8 8 10 11 11 12 13 12 12 11 10 10 13 13 12 13 12 13 12 11 11 11 11 13 13 13 13 11 10 10
16 15 15 13 15 14 14 15 13 10 10 10 10 7 8 9 9 9 9 9 10 10 10 9 9 8 8 8 9 7 7 6 6 6 6 5 5 6 7 7 7 7 8 7 7 7 8 7 7 7 6 7 7 8 8 8 8 8 9 9 9 9 10 10 9 9 9 9 10 10 9 10 10 11 11 10 12 12 11 12 10 10 10 10 10
14 14 14 14 14 15 15 15 12 10 10 10 9 10 10 11 10 9 9 9 9 10 10 9 9 8 7 7 8 8 8 7 6 6 7 6 5 5 7 7 7 6 7 7 7 7 7 6 6 6 6 7 7 8 8 8 8 8 8 8 8 8 8 8 7 7 7 7 7 7 8 9 10 10 11 12 11 11 11 11 11 10 10 9 10
13 13 14 12 12 14 15 15 13 11 11 10 11 11 11 12 10 10 10 10 9 11 10 10 9 8 7 6 7 6 7 7 7 6 5 5 4 5 6 5 4 3 4 5 7 7 5 4 4 5 6 7 7 7 6 4 6 8 6 7 7 7 6 7 6 8 3 6 7 9 10 10 10 10 9 11 11 11 11 11 12 11 10 10 9
12 12 11 11 12 15 14 14 12 11 12 12 12 11 11 11 11 10 10 11 11 10 10 9 8 8 8 7 7 7 7 7 7 8 8 7 9 10 7 3 5 5 6 7 6 5 4 4 6 5 5 5 6 5 1 4 9 10 10 9 8 8 7 6 7 9 5 7 9 8 9 9 9 10 10 9 9 10 9 9 10 11 10 10 10
12 12 10 11 10 11 14 14 12 12 12 12 12 12 11 10 10 10 11 12 12 10 9 8 8 7 8 8 7 7 7 7 7 7 7 8 7 7 11 11 8 6 7 8 8 6 4 8 4 5 5 7 6 3 4 8 9 10 10 10 10 9 9 8 9 3 7 8 7 8 8 8 9 10 8 8 7 8 8 7 9 8 9 9 8
Wind_Direction
123 121 119 123 129 141 141 149 153 153 158 162 163 164 160 161 158 155 157 157 154 151 152 147 147 138 128 137 48 161 99 71 48 48 45 49 18 1 360 355 343 329 311 295 300 304 306 316 318 310 309 305 304 301 304 307 305 301 299 301 298 292 281 262 250 256 265 271 261 265 272 267 255 251 247 245 244 246 247 245 240 233 231 226 219
117 113 113 114 117 118 120 123 135 151 158 164 166 167 166 159 161 152 155 163 158 158 153 160 168 138 128 124 123 99 112 90 81 69 41 40 35 26 12 352 344 333 329 324 316 316 318 317 308 306 315 305 296 294 290 287 292 292 295 295 278 288 291 281 266 238 250 257 278 283 269 248 254 257 245 245 245 246 245 238 238 233 230 229 224
116 106 108 108 111 113 116 125 132 145 156 159 159 161 159 156 156 151 156 158 159 157 161 158 154 75 68 89 101 108 75 53 47 45 39 43 45 42 28 20 13 7 357 346 333 334 327 317 311 309 309 303 288 288 295 296 290 284 285 284 289 261 267 260 251 230 262 256 262 277 277 288 244 234 245 245 241 242 237 235 234 233 235 230 222
94 117 110 109 107 113 115 120 127 124 127 136 151 157 154 153 153 158 156 159 163 164 155 116 114 110 90 100 93 59 86 82 89 64 67 77 69 61 58 49 48 42 33 21 5 349 333 321 318 314 311 307 303 297 292 289 293 299 288 281 284 286 273 265 240 244 242 252 264 245 266 265 285 265 251 241 237 237 232 234 232 235 236 235 227
162 121 116 116 117 123 126 126 129 123 124 133 141 135 135 145 151 159 160 163 155 152 142 129 126 125 121 113 118 112 110 101 113 86 70 78 85 71 59 55 58 56 44 36 24 9 4 348 331 321 313 310 301 298 299 302 302 300 301 298 280 279 288 286 277 234 229 224 251 260 242 238 255 280 290 269 220 233 234 235 235 235 233 233 227
308 107 119 117 116 119 120 121 116 114 106 95 108 105 124 128 129 133 138 144 140 135 135 147 135 134 147 151 148 145 135 124 96 97 95 77 71 79 65 51 48 45 37 28 24 15 7 4 350 341 336 330 321 313 308 304 300 298 297 297 298 292 286 291 288 274 250 240 234 236 246 276 285 262 292 279 157 230 238 232 236 234 233 229 227
99 30 24 110 118 117 115 113 117 110 88 93 102 113 116 115 123 136 138 130 125 129 144 140 134 144 145 137 113 117 115 103 99 101 105 104 83 70 63 53 43 40 33 27 23 17 15 15 10 2 344 342 335 324 318 312 306 302 300 295 292 292 289 281 279 283 279 250 247 237 231 232 248 252 256 265 275 241 216 230 235 235 235 232 232
137 135 195 125 114 119 115 111 106 104 104 101 106 110 113 114 116 117 120 110 104 124 126 116 131 133 128 113 108 101 98 112 116 112 106 93 71 60 57 50 42 35 27 25 20 17 16 14 9 5 356 353 342 332 321 317 312 311 309 304 297 291 291 290 292 288 281 283 225 275 246 258 263 252 239 252 271 279 264 231 232 238 233 233 233
155 142 156 150 131 120 119 113 113 112 114 110 108 110 116 117 116 117 110 97 94 102 113 109 110 113 106 111 108 104 109 108 114 98 79 64 58 54 49 44 37 33 28 25 21 18 17 11 9 6 356 351 336 325 321 318 320 316 312 305 300 296 292 287 281 284 285 288 291 275 252 225 244 244 235 240 247 258 263 259 250 222 229 234 231
167 146 141 142 136 127 120 117 118 121 122 120 113 113 111 104 100 98 92 88 94 96 98 99 101 101 100 103 105 104 108 107 78 62 54 39 40 39 36 34 24 23 22 24 21 14 11 9 8 4 352 343 335 333 333 334 335 327 314 306 302 302 294 292 298 300 289 281 282 289 285 281 267 243 234 245 243 241 260 269 259 230 225 225 221
171 149 132 135 132 127 121 111 116 120 122 120 118 111 103 93 100 96 95 95 90 89 91 89 86 90 99 93 91 91 83 68 70 60 46 37 34 33 31 27 22 21 17 18 20 9 10 5 3 358 351 350 345 345 345 340 335 330 322 317 313 306 297 299 296 297 295 296 285 273 276 284 286 277 247 238 241 253 253 253 257 251 244 245 223
165 147 130 131 131 131 127 127 131 131 127 116 111 104 102 99 105 103 91 93 94 90 89 89 92 89 95 96 92 85 80 78 72 59 43 42 38 32 26 19 19 20 21 13 15 11 6 5 2 357 360 358 354 349 346 338 334 334 330 331 327 323 314 309 309 305 310 300 297 292 284 271 269 273 270 251 230 237 238 251 257 258 249 247 247
159 152 134 137 141 142 139 134 135 137 128 113 110 107 110 108 110 104 96 89 88 93 91 87 89 95 99 97 94 82 75 70 58 49 42 41 33 30 24 21 19 16 20 11 16 8 6 7 5 3 358 357 349 346 341 337 340 336 336 334 332 329 323 320 318 317 313 308 308 289 276 277 280 269 255 265 266 259 257 261 257 260 262 258 232
159 153 139 140 146 143 142 142 141 141 131 126 121 118 116 113 108 104 101 93 92 87 89 93 93 92 89 85 80 72 66 59 54 48 49 45 37 33 24 25 19 13 16 12 11 3 4 360 356 358 356 352 352 349 344 338 339 337 338 340 339 338 335 339 327 328 320 310 302 302 294 291 289 276 268 261 263 259 255 256 270 267 255 262 244
156 151 146 145 147 145 144 142 142 143 136 128 125 125 124 119 115 114 111 103 98 99 98 95 91 86 82 77 71 69 68 68 64 59 56 51 44 41 28 27 22 16 20 1 8 4 2 357 358 0 359 353 352 349 345 340 336 333 336 345 346 340 338 337 342 340 341 339 332 323 312 304 297 292 270 265 253 257 263 267 267 266 258 241 243
148 147 147 145 144 143 139 141 141 142 135 124 127 129 124 116 110 106 107 104 100 100 99 98 90 80 74 72 68 67 68 66 65 63 60 56 49 35 30 25 17 8 11 4 6 6 6 360 1 2 0 357 353 348 342 341 344 344 342 351 356 350 341 342 346 341 346 343 337 339 335 333 320 302 277 270 267 258 256 252 253 254 261 265 247
144 148 144 142 139 138 138 138 137 134 126 125 122 118 118 118 114 108 102 98 99 103 102 90 82 75 69 68 70 74 70 69 68 61 55 52 42 31 32 29 21 14 8 9 6 10 11 8 6 4 3 358 352 348 345 345 345 350 353 349 354 352 349 347 355 354 355 345 344 345 348 337 336 327 308 287 280 277 262 252 245 255 255 259 262
132 126 131 134 136 138 138 140 139 134 130 123 117 112 113 113 113 112 111 109 109 100 85 79 78 76 75 73 72 72 72 70 65 64 55 45 36 36 31 26 20 17 16 12 11 14 15 14 12 10 5 358 353 348 347 345 345 352 351 356 0 355 2 1 4 357 359 353 352 355 351 348 345 338 331 322 312 296 284 272 267 259 254 258 258
142 147 142 140 139 141 137 138 130 128 125 123 122 119 116 105 103 108 113 110 103 89 84 80 76 77 74 69 70 68 66 66 62 56 52 48 41 35 33 27 24 22 19 17 17 17 15 14 13 11 7 356 354 354 349 347 347 355 2 7 9 11 11 9 7 7 4 2 358 353 356 349 348 341 335 335 323 317 303 287 272 261 254 240 247
149 146 146 144 141 140 140 138 137 136 129 124 120 115 113 115 115 114 113 108 97 87 82 79 75 76 76 72 67 68 62 55 52 52 54 51 41 33 29 27 26 26 26 22 21 20 17 15 14 13 7 1 1 0 358 352 359 9 15 17 14 11 11 9 7 7 1 3 4 4 359 351 343 336 343 340 338 331 327 324 304 287 269 249 241
142 138 135 135 135 135 130 135 132 125 119 119 116 119 124 126 125 123 113 99 86 79 76 74 72 69 70 69 67 60 62 62 58 56 58 50 40 35 32 30 31 32 25 26 25 25 23 19 19 20 17 16 12 9 9 7 11 9 11 11 13 14 12 13 9 10 8 5 6 5 4 358 349 342 343 346 348 345 340 333 323 314 290 268 256
133 136 134 134 133 129 130 130 131 123 123 119 125 128 129 128 125 112 94 86 87 82 80 77 73 70 70 69 67 65 60 59 62 55 53 50 44 40 37 38 39 34 31 30 33 33 29 31 30 23 22 21 20 20 16 16 17 15 15 14 14 15 16 13 8 9 8 6 5 7 7 3 358 351 350 345 343 339 335 338 338 337 327 311 275
143 142 140 138 136 134 134 138 135 130 130 130 132 130 128 124 110 96 93 88 87 86 81 79 74 72 72 70 63 58 59 57 56 53 53 52 48 47 42 42 42 42 40 40 40 41 40 34 33 32 35 29 22 28 28 26 26 24 25 25 22 19 18 13 10 7 6 5 8 10 8 5 360 358 357 348 343 340 336 339 339 342 334 319 318
148 151 141 132 128 137 141 138 135 132 131 128 119 117 122 109 100 94 88 87 83 80 78 78 77 73 67 62 63 66 61 59 60 56 56 54 53 50 46 49 52 51 49 45 45 43 40 42 45 38 40 35 32 33 34 33 33 32 32 31 27 24 22 22 20 17 11 11 11 12 11 10 5 3 0 358 354 346 340 343 345 343 342 336 326
147 145 141 132 135 145 147 148 144 139 137 136 132 123 110 96 92 93 88 85 82 78 77 77 76 72 65 68 68 66 66 62 63 60 57 57 54 53 51 54 56 56 52 47 46 45 46 47 40 39 35 32 29 29 32 33 32 32 34 34 33 32 34 35 33 29 25 19 17 18 16 16 14 10 5 2 356 355 355 355 347 347 347 343 335
145 142 139 135 143 145 147 146 142 140 136 128 118 115 104 99 97 95 92 85 78 77 75 77 74 74 72 72 67 65 61 60 62 60 57 56 56 56 59 55 53 56 54 52 51 48 47 48 45 42 38 36 32 32 35 37 35 35 37 38 40 39 37 38 37 31 26 24 23 24 23 25 26 23 13 6 2 2 3 4 0 353 348 337 341
145 139 132 128 142 145 147 140 135 136 135 127 124 113 106 104 97 91 90 84 77 78 81 84 80 80 77 69 66 64 65 66 66 66 64 61 61 62 59 55 53 55 53 54 51 53 50 49 48 44 43 40 40 38 37 36 39 39 34 32 30 27 29 29 29 34 34 27 25 25 25 25 28 27 25 22 13 13 12 8 2 358 352 352 353
125 127 139 146 151 153 146 136 132 132 130 120 116 109 108 105 98 93 86 84 86 91 87 83 79 78 76 71 67 69 71 73 75 75 71 68 66 62 58 55 54 53 52 52 52 53 55 55 51 51 49 47 44 41 41 37 30 23 26 29 29 22 21 23 25 28 29 25 21 28 26 22 23 26 24 25 26 23 16 17 11 7 3 4 6
148 156 155 154 155 148 137 131 131 131 133 123 112 109 106 100 102 93 85 93 98 88 87 89 85 80 74 78 81 78 80 80 81 81 78 72 68 63 61 61 59 59 57 55 58 60 57 62 58 50 51 49 45 36 29 13 6 24 29 38 31 28 27 27 25 25 23 23 22 24 29 22 18 20 30 32 32 34 32 30 22 17 12 12 12
157 157 156 153 149 143 139 139 141 134 133 125 117 115 111 114 109 97 98 105 94 94 97 91 89 86 85 88 89 90 88 87 84 82 79 77 74 70 68 67 65 63 62 62 63 52 52 55 54 50 48 45 41 37 13 12 10 12 35 36 37 33 30 27 26 24 22 21 20 19 28 25 20 16 23 31 32 34 40 44 35 31 24 21 16
156 156 149 147 144 140 139 143 141 143 142 127 127 125 122 117 112 109 111 110 103 106 96 99 95 94 95 101 100 95 97 91 87 85 84 82 79 77 75 72 70 68 66 62 56 55 52 51 51 50 50 49 42 24 10 18 17 8 23 42 41 38 34 32 30 27 22 17 18 18 18 17 22 25 31 36 39 35 36 40 43 44 41 37 27
152 150 142 146 145 148 151 150 149 148 142 137 134 132 128 120 116 116 119 114 109 107 101 102 100 99 98 98 99 105 105 97 94 89 88 86 86 84 80 76 76 74 69 61 57 55 55 53 54 54 52 49 43 14 16 21 20 18 19 45 46 45 40 38 35 32 28 24 21 23 23 21 19 16 15 25 38 43 38 42 47 46 43 40 41
155 152 147 142 140 150 152 152 153 146 134 139 137 134 129 124 120 123 119 114 114 107 109 110 111 108 104 101 100 96 95 97 97 96 94 94 91 83 79 77 72 68 69 63 58 57 56 56 55 56 53 46 44 13 17 19 21 20 17 43 52 48 46 43 40 36 32 27 23 24 26 21 17 13 12 12 27 37 47 49 48 50 49 45 41
151 151 151 149 152 155 155 155 148 136 135 140 139 134 128 117 120 120 117 122 118 115 119 119 117 111 109 104 100 95 91 88 87 87 91 89 85 81 78 74 74 71 68 68 62 60 58 56 56 59 57 48 40 10 18 18 18 17 19 43 54 51 50 47 43 39 35 31 27 28 27 26 22 20 12 4 23 30 36 40 45 44 44 42 41
158 153 153 157 159 155 153 148 146 143 138 135 132 131 129 122 122 121 123 122 117 119 119 115 111 111 110 107 102 99 96 93 90 87 85 84 83 83 77 73 72 68 67 65 63 61 55 53 55 57 61 53 36 14 21 19 14 13 22 51 53 52 51 48 45 41 38 33 29 29 31 31 26 24 12 360 8 22 35 44 46 46 46 40 38
164 160 163 161 159 159 154 146 143 141 142 141 137 136 124 118 121 119 116 111 107 106 106 110 111 113 111 108 108 104 101 99 96 92 88 86 83 82 83 81 81 77 71 70 64 61 58 56 52 55 60 56 39 21 20 20 15 6 29 54 53 54 52 48 46 45 43 35 29 26 30 31 28 26 7 3 360 5 35 42 43 44 45 45 44
157 153 157 153 144 147 146 141 142 132 129 137 138 129 123 122 120 122 116 113 111 110 110 110 111 113 111 110 110 109 105 103 100 97 93 90 91 88 85 85 83 78 75 67 65 59 57 56 52 51 57 55 46 23 20 19 15 1 32 54 54 55 55 53 46 46 47 43 35 25 26 29 27 24 7 8 1 6 37 40 42 43 43 41 39
130 122 127 130 130 129 137 141 133 124 126 130 133 132 133 130 128 127 119 110 112 114 119 116 113 114 113 113 112 111 109 106 102 99 97 94 91 86 79 75 83 83 75 70 72 69 62 57 55 52 44 57 51 30 22 22 17 3 11 52 56 54 53 52 52 46 46 48 42 35 28 29 28 23 13 17 6 18 36 34 36 39 39 40 36
144 144 142 140 139 143 138 129 127 127 131 131 131 129 124 122 122 123 118 111 112 116 119 118 116 116 115 112 112 110 108 105 101 99 99 98 92 90 89 84 83 82 80 78 73 73 70 62 57 55 38 50 53 38 26 25 22 12 8 52 52 59 54 47 49 51 47 44 43 40 31 24 27 21 21 22 17 19 41 32 34 36 39 40 32
139 133 131 138 138 126 127 131 130 126 127 126 127 126 124 123 120 117 112 110 112 113 116 116 119 117 116 113 111 109 105 104 104 102 99 97 99 97 89 87 84 83 85 82 78 74 71 65 56 53 49 45 53 49 31 29 27 23 9 32 51 56 53 53 49 47 46 44 41 40 34 21 21 24 24 23 25 18 32 35 33 37 29 27 20
143 135 127 139 138 135 135 133 130 133 129 127 128 124 122 119 115 113 110 111 112 118 121 120 120 118 116 113 109 106 105 103 105 104 101 96 95 97 95 92 91 88 89 84 80 78 76 71 61 56 57 51 42 51 46 32 35 31 20 17 55 43 51 52 55 51 48 44 40 36 36 17 18 24 25 23 24 24 21 34 28 30 17 330 341
127 132 133 127 125 128 125 117 125 130 129 127 122 115 117 121 114 112 116 119 122 122 122 123 121 117 115 111 110 105 103 105 107 108 103 95 89 91 92 93 94 93 89 85 82 82 80 74 68 60 55 59 51 38 49 42 36 39 36 26 42 43 16 53 53 54 47 44 38 35 32 11 16 23 27 25 23 25 26 33 15 6 359 355 15
130 127 131 131 127 127 123 125 127 128 127 128 124 118 116 123 119 126 127 125 125 124 123 121 118 118 114 112 110 109 108 107 104 104 104 102 101 96 92 92 95 94 89 86 81 82 83 79 76 68 62 56 56 55 33 45 42 41 40 42 35 36 6 44 53 51 42 40 37 32 26 13 20 22 27 30 29 22 33 19 9 6 1 355 14
142 141 143 126 119 119 121 128 130 132 133 134 128 126 130 127 125 132 125 125 123 119 119 117 117 118 114 111 110 106 104 106 108 106 102 104 101 98 91 90 95 97 95 91 87 84 82 81 79 73 66 60 57 61 50 39 46 43 44 42 41 36 23 47 52 50 45 39 38 34 26 19 21 20 22 30 34 31 26 17 13 6 0 14 27
142 141 138 134 130 128 124 124 127 130 129 131 129 126 125 123 130 132 129 127 124 121 120 121 122 118 113 113 108 106 105 107 107 108 108 108 106 105 102 96 96 94 94 94 89 85 84 84 80 74 69 61 55 56 58 49 46 52 47 43 42 39 36 34 56 51 50 50 42 36 30 31 25 21 23 29 34 27 20 21 16 7 16 27 24
134 135 137 125 122 126 129 127 125 125 122 123 121 127 130 132 135 131 129 126 122 120 119 122 120 118 117 117 111 105 103 100 97 94 98 103 109 108 107 104 99 98 97 96 92 88 87 85 82 78 73 66 57 55 54 53 55 55 51 41 43 37 40 49 56 54 50 47 36 37 36 35 40 27 33 34 34 25 18 19 19 18 30 26 23
141 142 132 126 130 132 135 132 129 130 125 119 110 97 113 127 133 132 129 127 126 123 119 120 122 121 119 119 119 120 114 105 100 101 100 103 105 107 106 106 105 103 100 96 93 93 90 85 83 82 78 69 61 52 47 48 47 55 57 55 48 46 37 42 49 46 43 47 41 37 37 35 38 36 42 42 40 28 26 23 24 24 28 27 26
137 140 137 133 136 138 136 131 130 134 130 125 121 129 137 138 138 138 134 127 123 126 127 128 128 127 125 120 115 115 116 113 108 111 112 107 98 101 110 106 107 105 103 97 93 89 84 85 88 83 77 71 63 56 44 38 39 45 56 57 51 49 47 38 40 41 47 40 47 41 42 45 37 37 37 40 35 33 33 28 24 23 25 27 26
137 139 139 138 138 137 138 136 139 140 134 128 131 137 144 141 139 138 137 128 123 123 123 126 126 124 121 121 125 124 115 113 106 90 72 61 87 103 101 87 27 20 43 88 99 86 79 69 67 69 75 76 68 65 51 24 51 39 35 46 47 44 44 55 27 330 346 55 55 47 45 38 40 36 36 36 33 31 31 32 30 22 25 24 24
140 138 137 131 133 133 134 134 137 141 140 138 140 140 143 142 140 144 139 129 130 127 127 131 131 128 127 125 123 119 119 118 119 116 110 87 50 44 22 73 108 48 30 14 11 76 68 78 81 48 24 59 86 84 61 68 68 63 60 57 53 43 31 28 360 328 6 58 49 48 43 40 38 39 37 35 30 30 27 27 31 26 26 25 19
132 123 127 131 122 118 125 133 142 144 140 137 138 141 142 144 145 147 141 135 135 133 133 134 135 137 135 130 128 125 125 121 121 123 119 117 112 73 54 43 46 69 63 62 65 55 14 346 34 104 67 39 56 95 100 76 68 63 55 51 43 34 28 16 348 334 56 50 50 49 44 43 42 41 37 34 32 31 27 26 27 29 27 22 20